Location: ČR
(50.0000°N, 15.0000°E)
Time: 14:39:53
(UTC+00:00)

Courier 1B - All Passes

Search period start: 25 October 2021 00:00
Search period end: 04 November 2021 00:00
Orbit: 962 x 1209 km, 28.3° (Epoch: 24 October)

Date Brightness Start Highest point End Pass type
(mag) Time Alt. Az. Time Alt. Az. Time Alt. Az.
25 Oct - 09:21:28 10° SSW 09:24:26 13° S 09:27:21 10° SSE daylight
26 Oct - 08:27:58 10° SSW 08:30:56 13° S 08:33:51 10° SSE daylight
26 Oct - 10:21:31 10° SSW 10:23:33 11° S 10:25:34 10° S daylight
27 Oct - 07:34:49 10° S 07:37:25 12° S 07:40:01 10° SSE daylight
27 Oct - 09:27:10 10° SSW 09:30:04 12° S 09:32:57 10° SSE daylight
28 Oct - 06:42:14 10° S 06:43:55 11° SSE 06:45:36 10° SSE daylight
28 Oct - 08:33:15 10° SSW 08:36:34 13° S 08:39:51 10° SSE daylight
29 Oct - 07:39:37 10° SSW 07:43:03 13° S 07:46:26 10° SSE daylight
29 Oct - 09:33:58 10° SSW 09:35:40 11° SSW 09:37:22 10° S daylight
30 Oct - 06:46:16 10° SSW 06:49:31 13° S 06:52:44 10° SSE daylight
30 Oct - 08:39:19 10° SSW 08:42:10 12° S 08:45:01 10° SSE daylight
31 Oct - 05:53:17 10° S 05:55:59 12° S 05:58:41 10° SSE daylight
31 Oct - 07:45:16 10° SSW 07:48:40 13° S 07:52:02 10° SSE daylight
01 Nov - 05:01:06 10° S 05:02:29 11° SSE 05:03:52 10° SSE visible
01 Nov - 06:51:32 10° SSW 06:55:07 14° S 06:58:42 10° SSE daylight
02 Nov - 05:58:06 10° SSW 06:01:35 14° S 06:05:05 10° SSE daylight
02 Nov - 07:51:48 10° SSW 07:54:15 12° SSW 07:56:43 10° S daylight
03 Nov - 05:04:58 10° SSW 05:08:03 13° S 05:11:10 10° SSE visible
03 Nov - 06:57:34 10° SSW 07:00:44 13° S 07:03:54 10° SSE daylight
